sat.trackr.live / text

‹ back to catalog

SPACEMOBILE-010

NORAD 69591 · 2026-139C

PAYLOAD ACTIVE UNKNOWN

§ Identity

Operator
Country
US
Launch date
2026-06-17
Launch site
AFETR
Launch vehicle
Mass (kg)
RCS (m²)

External: N2YO · Heavens-Above · Gunter

§ Orbital elements

Epoch: 2026-09-20T02:08:47.128704Z

Period
95.19 min
Inclination
52.9947°
Eccentricity
0.0002933
Mean motion
15.12742388 rev/d
Perigee alt
525.8 km
Apogee alt
529.9 km
Semi-major
6,906.0 km
B*
9.6325e-5
RAAN
191.8239°
Arg perigee
227.5721°
Mean anomaly
132.5022°
Rev number
1,435

§ Raw data

SPACEMOBILE-0101 69591U 26139C   26263.08943436  .00001408  00000+0  96325-4 0  99982 69591  52.9947 191.8239 0002933 227.5721 132.5022 15.12742388 14353

JSON: /api/v1/satellites/69591 · /tle

For live sub-satellite position, see the globe view (requires WebGL).

§ Visibility from observer

Set your observer location to see the next 7 days of passes ≥ 10°. The values pass through the URL so the page stays shareable.

No JS? Fill the form by hand. The geolocation button needs JavaScript.

§ Radio — SatNOGS DB

ModeDescriptionDownlinkUplink
FSK Mode U - FSK 2400 435.900 MHz

1 transmitter · refreshed weekly from db.satnogs.org